Location: Wiesbaden
(50.0830°N, 8.2500°E)
Time: 07:52:41
(UTC+02:00)

ISS - Pass Details

Date: 23 May 2019
Orbit: 408 x 418 km, 51.6° (Epoch: 27 May)

Event Time Altitude Azimuth Distance (km) Brightness Sun altitude
Rises 23:26:14 0° 274° (W) 2,353 0.5 -14.6°
Reaches altitude 10° 23:28:21 10° 278° (W) 1,492 -0.5 -14.8°
Maximum altitude 23:31:40 64° 0° (N) 466 -3.4 -15.0°
Drops below altitude 10° 23:35:01 10° 83° (E) 1,497 -1.2 -15.3°
Enters shadow 23:35:29 - 84° (E) 1,688 -0.9 -15.3°
